Weather in Omaha

United States     41°15′31″N   95°56′26″W
temp.,
°C
wind,
m/s
gust,
m/s
humid.,
%
clouds,
%
prec.,
mm/h
press.,
hPa
HPBL,
m
16 may, sun
sun1601:00+14se369611 0.0 1017142
04:00+13se3698100 0.0 1016142
07:00+14se3895100 0.0 1017262
10:00+16se5981100 0.0 1016542
13:00+18se6781100 0.1 1015802
16:00+15e4696100 1.9 1015387
19:00+14e4796100 2.1 1015323
22:00+13e4897100 0.0 1015336
17 may, mon
mon1701:00+14ne3797100 0.0 1015371
04:00+14ne5897100 0.1 1014388
07:00+13ne489698 0.1 1015346
10:00+15ene5893100 0.0 1015505
13:00+15e4793100 0.1 1016556
16:00+17e578792 0.1 1015583
19:00+18e578067 0.1 1015604
22:00+14e39955 0.0 1016242
18 may, tue
tue1801:00+14ese5888100 0.0 1015529
04:00+14ene2696100 0.1 1015281
07:00+14e3594100 0.1 1015228
10:00+17ene5580100 0.0 1014555
13:00+19se3470100 0.1 1015987
16:00+20sse2267100 0.0 10131039
19:00+20ese4576100 0.1 1012606
22:00+16ese229186 0.0 101338
19 may, wed
wed1901:00+16ese2291100 0.0 101350
04:00+15e3696100 0.0 1011126
07:00+16e2596100 0.3 1012201
10:00+18e3389100 0.1 1012527
13:00+20sse5586100 0.8 1012531
16:00+21ssw4577100 0.3 1011843
19:00+23sse477189 0.4 1010640
22:00+18sse5129190 0.1 1012351
20 may, thu
thu2001:00+19sse51392100 0.3 1013539
04:00+18s61395100 0.2 1012648
07:00+19s71391100 0.2 1014754
10:00+19s71183100 0.1 1015919
13:00+22s91174100 0.1 10151071
16:00+23s81373100 0.1 10141341
19:00+22s81379100 0.1 10151014
22:00+20s61586100 0.0 1016708